Weather History for Watsonville, CA

Change the Weather History Date:

Monday, December 17, 2012

  Actual Average Record
Temperature  
Mean Temperature 51 °F 50 °F  
Max Temperature 58 °F 60 °F 75 °F (2013)
Min Temperature 44 °F 40 °F 30 °F (2008)
Degree Days  
Heating Degree Days 14    
Month to date heating degree days 221  
Since 1 July heating degree days 962  
Cooling Degree Days 0    
Month to date cooling degree days 0  
Year to date cooling degree days 79  
Growing Degree Days 2 (Base 50)    
Moisture  
Dew Point 51 °F    
Average Humidity 90    
Maximum Humidity 100    
Minimum Humidity 80    
Precipitation  
Precipitation 0.21 in - 1.51 in (1977)
Month to date precipitation 2.72  
Year to date precipitation 19.56  
Since 1 July precipitation 7.63  
Sea Level Pressure  
Sea Level Pressure 30.05 in    
Wind  
Wind Speed 5 mph (SW)    
Max Wind Speed 22 mph    
Max Gust Speed 61 mph    
Visibility 7 miles    
Events Rain    
T = Trace of Precipitation, MM = Missing Value Source: NWS Daily Summary

Daily Weather History Graph

Daily Weather History Graph

Search for Another Location

Airport:

Trip Planner

Search our weather history database for the weather conditions in past years. The results will help you decide how hot, cold, wet, or windy it might be!

Date:

Astronomy

Dec. 17, 2012 Rise Set
Actual Time 7:14 AM PST 4:52 PM PST
Civil Twilight 6:45 AM PST 5:21 PM PST
Nautical Twilight 6:13 AM PST 5:54 PM PST
Astronomical Twilight 5:41 AM PST 6:25 PM PST
Moon 10:32 AM PST (12/17) 10:13 PM PST (12/17)
Length of Visible Light 10h 36m
Length of Day
9h 37m
Waxing Crescent, 26% of the Moon is Illuminated
Dec 17
Waxing Crescent
Dec 19
First Quarter
Dec 28
Full
Jan 4
Last Quarter
Jan 11
New

Hourly Weather History & Observations

Time (PST) Temp. Windchill Dew Point Humidity Pressure Visibility Wind Dir Wind Speed Gust Speed Precip Events Conditions
12:53 AM 54.0 °F - 51.1 °F 90% 30.09 in 10.0 mi SSW 5.8 mph - N/A   Overcast
1:17 AM 53.6 °F - 51.8 °F 94% 30.09 in 10.0 mi South 6.9 mph - N/A   Overcast
1:53 AM 55.0 °F - 50.0 °F 83% 30.10 in 10.0 mi SSW 9.2 mph - N/A   Overcast
2:10 AM 53.6 °F - 50.0 °F 88% 30.10 in 8.0 mi SSW 13.8 mph - 0.00 in Rain Light Rain
2:53 AM 55.0 °F - 50.0 °F 83% 30.08 in 10.0 mi Variable 3.5 mph - 0.00 in   Overcast
3:45 AM 53.6 °F - 53.6 °F 100% 30.08 in 4.0 mi Calm Calm - 0.02 in Rain Light Rain
3:53 AM 53.1 °F - 53.1 °F 100% 30.08 in 4.0 mi NE 3.5 mph - 0.02 in Rain Light Rain
4:08 AM 51.8 °F - 51.8 °F 100% 30.07 in 2.0 mi NE 3.5 mph - 0.02 in Rain Light Rain
4:17 AM 51.8 °F - 51.8 °F 100% 30.07 in 3.0 mi ENE 4.6 mph - 0.03 in Rain Light Rain
4:53 AM 52.0 °F - 52.0 °F 100% 30.07 in 5.0 mi ENE 3.5 mph - 0.05 in Rain Light Rain
5:48 AM 51.8 °F - 51.8 °F 100% 30.06 in 10.0 mi Calm Calm - 0.01 in   Overcast
5:53 AM 52.0 °F - 52.0 °F 100% 30.06 in 10.0 mi Calm Calm - 0.01 in   Overcast
6:27 AM 51.8 °F - 51.8 °F 100% 30.06 in 6.0 mi Calm Calm - 0.00 in Rain Light Rain
6:38 AM 51.8 °F - 51.8 °F 100% 30.07 in 3.0 mi Calm Calm - 0.02 in Rain Light Rain
6:53 AM 52.0 °F - 52.0 °F 100% 30.06 in 8.0 mi Calm Calm - 0.03 in Rain Light Rain
7:20 AM 51.8 °F - 51.8 °F 100% 30.07 in 2.5 mi Calm Calm - 0.03 in Rain Rain
7:30 AM 51.8 °F - 51.8 °F 100% 30.07 in 5.0 mi Calm Calm - 0.03 in Rain Light Rain
7:53 AM 52.0 °F - 52.0 °F 100% 30.08 in 3.0 mi Calm Calm - 0.05 in Rain Light Rain
8:08 AM 51.8 °F - 51.8 °F 100% 30.08 in 8.0 mi Calm Calm - 0.00 in Rain Light Rain
8:23 AM 53.6 °F - 53.6 °F 100% 30.08 in 2.5 mi Calm Calm - 0.01 in Rain Rain
8:30 AM 53.6 °F - 53.6 °F 100% 30.09 in 7.0 mi Calm Calm - 0.01 in Rain Light Rain
8:53 AM 53.1 °F - 53.1 °F 100% 30.09 in 10.0 mi Calm Calm - 0.01 in   Overcast
9:16 AM 55.4 °F - 53.6 °F 94% 30.10 in 8.0 mi South 13.8 mph 20.7 mph 0.00 in Rain Light Rain
9:53 AM 55.9 °F - 55.0 °F 97% 30.10 in 10.0 mi South 15.0 mph 23.0 mph 0.00 in   Overcast
10:53 AM 57.0 °F - 54.0 °F 89% 30.08 in 10.0 mi South 11.5 mph - 0.00 in   Overcast
11:53 AM 57.9 °F - 53.1 °F 84% 30.06 in 10.0 mi SSW 9.2 mph - 0.01 in   Overcast
12:17 PM 55.4 °F - 53.6 °F 94% 30.05 in 2.5 mi SSW 11.5 mph 21.9 mph 0.00 in Rain Light Rain
12:25 PM 55.4 °F - 53.6 °F 94% 30.05 in 3.0 mi SW 9.2 mph - 0.00 in Rain Light Rain
12:53 PM 55.0 °F - 53.1 °F 93% 30.04 in 2.5 mi SW 10.4 mph - 0.00 in Rain Light Rain
1:01 PM 55.4 °F - 53.6 °F 94% 30.04 in 2.0 mi WSW 11.5 mph - 0.01 in Rain Light Rain
1:11 PM 55.4 °F - 53.6 °F 94% 30.03 in 2.0 mi WSW 10.4 mph - 0.01 in Rain Light Rain
1:38 PM 55.4 °F - 53.6 °F 94% 30.01 in 4.0 mi WSW 8.1 mph - 0.02 in Rain Light Rain
1:53 PM 54.0 °F - 53.1 °F 97% 30.01 in 4.0 mi West 9.2 mph - 0.03 in Rain Light Rain
4:53 PM 54.0 °F - 52.0 °F 93% 30.00 in 10.0 mi SW 3.5 mph - N/A   Overcast
5:03 PM 53.6 °F - 51.8 °F 94% 30.00 in 10.0 mi SSW 3.5 mph - N/A   Overcast
5:40 PM 53.6 °F - 51.8 °F 94% 30.00 in 10.0 mi Calm Calm - 0.00 in   Overcast
5:44 PM 53.6 °F - 51.8 °F 94% 30.00 in 10.0 mi Calm Calm - 0.00 in   Overcast
5:53 PM 54.0 °F - 52.0 °F 93% 30.00 in 10.0 mi Calm Calm - 0.00 in   Overcast
6:53 PM 53.1 °F - 51.1 °F 93% 30.00 in 10.0 mi SW 3.5 mph - N/A   Overcast
7:53 PM 50.0 °F - 48.0 °F 93% 30.01 in 10.0 mi WSW 4.6 mph - N/A   Scattered Clouds
8:53 PM 50.0 °F - 46.0 °F 86% 30.01 in 10.0 mi WSW 6.9 mph - N/A   Mostly Cloudy
9:53 PM 48.0 °F - 43.0 °F 83% 30.01 in 10.0 mi WSW 3.5 mph - N/A   Partly Cloudy
10:53 PM 46.0 °F 44.8 °F 42.1 °F 86% 30.02 in 10.0 mi WSW 3.5 mph - N/A   Scattered Clouds
11:53 PM 45.0 °F - 42.1 °F 90% 30.02 in 10.0 mi Calm Calm - N/A   Clear